Regional Weather Roundup
Issued by NWS Northern Indiana

Home | Current Version | Previous Version | Graphics & Text | Print | Product List | Glossary Off
Versions: 1 2 3 4 5 6 7 8 9 10 11 12 13 14 15 16 17 18 19 20 21 22 23 24 25 26 27 28 29 30 31 32 33 34 35 36 37 38 39 40 41 42 43 44 45 46 47 48 49 50

000
ASUS43 KIWX 230010
RWRIWX

KIWX WEATHER ROUNDUP
NATIONAL WEATHER SERVICE NORTHERN INDIANA
800 PM EDT FRI AUG 22 2014

NOTE: "FAIR" INDICATES FEW OR NO CLOUDS BELOW 12,000 FEET WITH NO
SIGNIFICANT WEATHER AND/OR OBSTRUCTIONS TO VISIBILITY.

* THESE STATIONS ARE NOT UNDER NWS QUALITY CONTROL. THEY ALSO MAY NOT
  REPORT WEATHER SUCH AS PRECIPITATION OR FOG.

INZ001>027-230100-
NORTHERN INDIANA

CITY           SKY/WX    TMP DP  RH WIND       PRES   REMARKS
GARY*          PTCLDY    84  72  65 W7        29.95R
VALPARAISO     CLOUDY    80  71  74 SW8       29.96S
6HR MIN TEMP:  77; 6HR MAX TEMP:  84;

MICHIGAN CITY* PTCLDY    79  72  78 CALM      29.96S
LAPORTE*       CLOUDY    80  73  79 SW5       29.97R
6HR MIN TEMP:  78; 6HR MAX TEMP:  84;

KNOX*          CLOUDY    80  73  79 W3        29.95S
6HR MIN TEMP:  41; 6HR MAX TEMP:  86;

SOUTH BEND     CLOUDY    82  73  74 W5        29.96S
6HR MIN TEMP:  81; 6HR MAX TEMP:  85;

ELKHART*       CLOUDY    82  73  74 SW6       29.96S
GOSHEN         CLOUDY    83  74  74 S3        29.96R
6HR MIN TEMP:  83; 6HR MAX TEMP:  87;

MONTICELLO*    MOCLDY    80  74  82 CALM      29.96S
6HR MIN TEMP:  78; 6HR MAX TEMP:  83;

LOGANSPORT*    PTCLDY    79  72  78 SW3       29.97S
ROCHESTER*     PTCLDY    82  73  74 SW3       29.97S
WARSAW*        CLOUDY    81  73  78 W5        29.97R
ANGOLA*        MOCLDY    81  72  74 CALM      29.97S
FORT WAYNE     MOCLDY    78  73  84 W6        29.97R
6HR MIN TEMP:  78; 6HR MAX TEMP:  85;

HUNTINGTON*    MOCLDY    79  74  83 CALM      29.96S
6HR MIN TEMP:  78; 6HR MAX TEMP:  81;

PERU/GRISSOM   PTCLDY    80  79  94 W5        29.97R
6HR MIN TEMP:  80; 6HR MAX TEMP:  82;

MARION*        MOCLDY    78  73  84 CALM      29.97F
6HR MIN TEMP:  40; 6HR MAX TEMP:  87;


$$
INZ028>050-230100-
CENTRAL INDIANA

CITY           SKY/WX    TMP DP  RH WIND       PRES   REMARKS
LAFAYETTE      PTCLDY    80  73  79 W6        29.97R
6HR MIN TEMP:  77; 6HR MAX TEMP:  83;

KOKOMO*        PTCLDY    81  73  78 W5        29.97S
6HR MIN TEMP:  81; 6HR MAX TEMP:  82;

MUNCIE*        PTCLDY    79  72  79 NW3       29.97S
6HR MIN TEMP:  79; 6HR MAX TEMP:  84;

INDIANAPOLIS   MOCLDY    82  68  62 W7        29.97S
6HR MIN TEMP:  81; 6HR MAX TEMP:  86;


$$
MIZ043>046-050>051-056>058-064>065-071>073-077>080-230100-
SOUTHWEST LOWER MICHIGAN

CITY           SKY/WX    TMP DP  RH WIND       PRES   REMARKS
BATTLE CREEK   MOCLDY    79  71  76 N3        29.98S
6HR MIN TEMP:  78; 6HR MAX TEMP:  81;

BENTON HARBOR  PTCLDY    76  72  87 NW5       29.96R
6HR MIN TEMP:  76; 6HR MAX TEMP:  84;

COLDWATER*     MOCLDY    79  73  80 NE5       29.98R
6HR MIN TEMP:  79; 6HR MAX TEMP:  83;

HILLSDALE*     CLEAR     79  74  84 CALM      29.99R
6HR MIN TEMP:  78; 6HR MAX TEMP:  81;

HOLLAND        CLEAR     81  73  76 E5        29.97R
6HR MIN TEMP:  77; 6HR MAX TEMP:  83;

GRAND RAPIDS   MOCLDY    79  75  87 E5        29.98R
6HR MIN TEMP:  78; 6HR MAX TEMP:  81;

KALAMAZOO      CLOUDY    80  71  74 CALM      29.97R
6HR MIN TEMP:  80; 6HR MAX TEMP:  84;

STURGIS*         N/A     79  73  83 E5        29.96S
THREE RIVERS*  MOCLDY    81  73  75 E5        29.96S HAZE

$$
OHZ001>008-015>018-024>025-230100-
NORTHWEST OHIO

CITY           SKY/WX    TMP DP  RH WIND       PRES   REMARKS
WAUSEON*       FAIR      79  73  83 CALM      29.97R
DEFIANCE       PTCLDY    81  72  74 CALM      29.96S
6HR MIN TEMP:  81; 6HR MAX TEMP:  87; 6HR PCP: TRACE;

FINDLAY        PTCLDY    79  75  87 CALM      29.95S
6HR MIN TEMP:  78; 6HR MAX TEMP:  85; 6HR PCP:  0.20;

TOLEDO EXPRESS PTCLDY    79  71  76 E5        29.95S
6HR MIN TEMP:  79; 6HR MAX TEMP:  82; 6HR PCP: TRACE;

TOLEDO METCALF PTCLDY    79  70  74 NE3       29.96S
6HR MIN TEMP:  79; 6HR MAX TEMP:  82;

LIMA           PTCLDY    80  73  79 N5        29.97R
6HR MIN TEMP:  79; 6HR MAX TEMP:  83;


$$
&&


USA.gov is the U.S. government's official web portal to all federal, state and local government web resources and services.